Weather History for KCIR - April, 2013

Change the Weather History Date:

Friday, April 5, 2013

  Actual Average Record
Temperature  
Mean Temperature 52 °F -  
Max Temperature 73 °F 61 °F 85 °F (1967)
Min Temperature 32 °F 44 °F 32 °F (2007)
Degree Days  
Heating Degree Days 13    
Growing Degree Days 2 (Base 50)    
Moisture  
Dew Point 35 °F    
Average Humidity 55    
Maximum Humidity 93    
Minimum Humidity 23    
Precipitation  
Precipitation 0.00 in - - ()
Sea Level Pressure  
Sea Level Pressure 30.10 in    
Wind  
Wind Speed 2 mph (West)    
Max Wind Speed 12 mph    
Max Gust Speed -    
Visibility 8 miles    
Events Fog    
Averages and records for this station are not official NWS values.
T = Trace of Precipitation, MM = Missing Value Source: NWS Daily Summary

Daily Weather History Graph

Daily Weather History Graph

Search for Another Location

Airport or City:

Trip Planner

Search our weather history database for the weather conditions in past years. The results will help you decide how hot, cold, wet, or windy it might be!

Date:

Astronomy

Apr. 05, 2013 Rise Set
Actual Time 6:36 AM CDT 7:23 PM CDT
Civil Twilight 6:10 AM CDT 7:49 PM CDT
Nautical Twilight 5:38 AM CDT 8:20 PM CDT
Astronomical Twilight 5:06 AM CDT 8:52 PM CDT
Moon 3:37 AM CDT (4/5) 2:53 PM CDT (4/5)
Length of Visible Light 13h 39m
Length of Day
12h 46m
Waning Crescent, 23% of the Moon is Illuminated
Apr 5
Waning Crescent
Apr 10
New
Apr 18
First Quarter
Apr 25
Full
May 2
Last Quarter

Hourly Weather History & Observations

Time (CDT) Temp. Windchill Dew Point Humidity Pressure Visibility Wind Dir Wind Speed Gust Speed Precip Events Conditions
12:15 AM 42.8 °F - 36.7 °F 79% 30.06 in 10.0 mi Calm Calm - N/A   Clear
12:35 AM 40.3 °F - 34.3 °F 79% 30.06 in 10.0 mi Calm Calm - N/A   Clear
12:55 AM 40.1 °F - 34.7 °F 81% 30.06 in 10.0 mi Calm Calm - N/A   Clear
1:15 AM 40.1 °F - 35.1 °F 82% 30.06 in 10.0 mi Calm Calm - N/A   Clear
1:35 AM 38.3 °F - 33.4 °F 83% 30.07 in 10.0 mi Calm Calm - N/A   Clear
1:55 AM 40.3 °F - 35.8 °F 84% 30.06 in 7.0 mi Calm Calm - N/A   Clear
2:15 AM 37.9 °F - 33.4 °F 84% 30.07 in 5.0 mi Calm Calm - N/A   Clear
2:35 AM 38.7 °F - 34.7 °F 86% 30.07 in 3.0 mi Calm Calm - N/A   Clear
2:55 AM 38.1 °F 35.7 °F 34.5 °F 87% 30.07 in 5.0 mi WSW 3.5 mph - N/A   Clear
3:15 AM 37.9 °F - 34.3 °F 87% 30.07 in 3.0 mi Calm Calm - N/A   Clear
3:35 AM 37.6 °F - 34.2 °F 87% 30.08 in 2.5 mi Calm Calm - N/A   Clear
3:55 AM 35.4 °F - 32.2 °F 88% 30.08 in 0.2 mi Calm Calm - N/A Fog Fog
4:15 AM 34.9 °F - 32.0 °F 89% 30.09 in 0.2 mi Calm Calm - N/A Fog Fog
4:35 AM 35.6 °F - 32.4 °F 88% 30.09 in 0.2 mi Calm Calm - N/A Fog Fog
4:55 AM 35.1 °F - 32.2 °F 89% 30.09 in 0.5 mi Calm Calm - N/A Fog Fog
5:15 AM 33.3 °F - 31.1 °F 92% 30.10 in 0.5 mi Calm Calm - N/A Fog Fog
5:35 AM 32.2 °F - 29.8 °F 91% 30.10 in 0.8 mi Calm Calm - N/A   Mist
5:55 AM 33.1 °F - 30.9 °F 92% 30.11 in 0.2 mi Calm Calm - N/A Fog Fog
6:15 AM 33.3 °F - 31.3 °F 92% 30.12 in 0.8 mi Calm Calm - N/A   Mist
6:55 AM 32.5 °F - 30.7 °F 93% 30.14 in 0.2 mi Calm Calm - N/A Fog Fog
7:35 AM 35.8 °F - 33.4 °F 91% 30.15 in 4.0 mi Calm Calm - N/A   Clear
7:55 AM 39.2 °F - 36.9 °F 91% 30.15 in 4.0 mi Calm Calm - N/A   Clear
8:15 AM 43.2 °F - 40.6 °F 91% 30.15 in 7.0 mi Calm Calm - N/A   Clear
8:35 AM 45.9 °F - 43.0 °F 90% 30.15 in 10.0 mi Calm Calm - N/A   Clear
8:55 AM 49.6 °F - 44.4 °F 82% 30.15 in 10.0 mi Calm Calm - N/A   Clear
9:15 AM 52.3 °F - 40.8 °F 65% 30.15 in 10.0 mi WNW 3.5 mph - N/A   Clear
9:35 AM 54.9 °F - 38.1 °F 53% 30.15 in 10.0 mi Calm Calm - N/A   Clear
9:55 AM 57.9 °F - 36.5 °F 45% 30.15 in 10.0 mi Calm Calm - N/A   Clear
10:15 AM 60.3 °F - 34.9 °F 39% 30.15 in 10.0 mi SSW 4.6 mph - N/A   Clear
10:35 AM 61.7 °F - 33.1 °F 34% 30.15 in 10.0 mi SE 3.5 mph - N/A   Clear
10:55 AM 63.9 °F - 32.0 °F 30% 30.15 in 10.0 mi NNE 3.5 mph - N/A   Clear
11:15 AM 64.0 °F - 31.3 °F 29% 30.15 in 10.0 mi Calm Calm - N/A   Clear
11:35 AM 65.1 °F - 31.5 °F 28% 30.15 in 10.0 mi SW 3.5 mph - N/A   Clear
11:55 AM 64.9 °F - 30.7 °F 28% 30.15 in 10.0 mi South 3.5 mph - N/A   Clear
12:15 PM 65.8 °F - 30.7 °F 27% 30.14 in 10.0 mi SW 4.6 mph - N/A   Clear
12:35 PM 67.3 °F - 31.5 °F 26% 30.13 in 10.0 mi West 5.8 mph - N/A   Clear
12:55 PM 69.4 °F - 32.0 °F 25% 30.13 in 10.0 mi West 8.1 mph - N/A   Clear
1:15 PM 69.6 °F - 30.4 °F 23% 30.13 in 10.0 mi West 11.5 mph - N/A   Clear
1:35 PM 70.3 °F - 30.6 °F 23% 30.12 in 10.0 mi West 10.4 mph - N/A   Clear
1:55 PM 70.7 °F - 31.6 °F 24% 30.10 in 10.0 mi SW 5.8 mph - N/A   Clear
2:15 PM 71.6 °F - 32.4 °F 24% 30.10 in 10.0 mi NW 8.1 mph - N/A   Clear
2:35 PM 70.9 °F - 32.0 °F 24% 30.09 in 10.0 mi WSW 3.5 mph - N/A   Clear
2:55 PM 72.0 °F - 32.4 °F 23% 30.08 in 10.0 mi West 5.8 mph - N/A   Clear
3:15 PM 71.8 °F - 32.5 °F 24% 30.07 in 10.0 mi SW 4.6 mph - N/A   Clear
3:35 PM 72.0 °F - 32.5 °F 23% 30.06 in 10.0 mi WSW 5.8 mph - N/A   Clear
3:55 PM 72.7 °F - 33.6 °F 24% 30.06 in 10.0 mi West 8.1 mph - N/A   Clear
4:15 PM 72.5 °F - 33.3 °F 24% 30.06 in 10.0 mi NW 5.8 mph - N/A   Clear
4:35 PM 72.7 °F - 34.7 °F 25% 30.06 in 10.0 mi West 5.8 mph - N/A   Clear
4:55 PM 72.7 °F - 33.8 °F 24% 30.05 in 10.0 mi NNW 6.9 mph - N/A   Clear
5:15 PM 72.9 °F - 33.4 °F 24% 30.05 in 10.0 mi North 8.1 mph - N/A   Clear
5:35 PM 72.5 °F - 33.4 °F 24% 30.05 in 10.0 mi North 3.5 mph - N/A   Clear
5:55 PM 72.5 °F - 34.2 °F 25% 30.06 in 10.0 mi WNW 5.8 mph - N/A   Clear
6:15 PM 70.2 °F - 32.9 °F 25% 30.06 in 10.0 mi North 3.5 mph - N/A   Clear
6:35 PM 68.5 °F - 36.0 °F 30% 30.06 in 10.0 mi NNW 4.6 mph - N/A   Clear
6:55 PM 67.6 °F - 35.1 °F 30% 30.06 in 10.0 mi North 4.6 mph - N/A   Clear
7:15 PM 63.9 °F - 38.8 °F 40% 30.06 in 10.0 mi NE 5.8 mph - N/A   Clear
7:35 PM 62.2 °F - 40.6 °F 45% 30.07 in 10.0 mi NE 3.5 mph - N/A   Clear
7:55 PM 61.3 °F - 39.0 °F 44% 30.07 in 10.0 mi Calm Calm - N/A   Clear
8:15 PM 60.8 °F - 40.1 °F 46% 30.08 in 10.0 mi Calm Calm - N/A   Clear
8:35 PM 60.3 °F - 39.0 °F 45% 30.09 in 10.0 mi Calm Calm - N/A   Clear
8:55 PM 60.1 °F - 37.2 °F 43% 30.09 in 10.0 mi Calm Calm - N/A   Clear
9:15 PM 56.3 °F - 38.1 °F 51% 30.10 in 10.0 mi Calm Calm - N/A   Clear
9:35 PM 57.7 °F - 37.4 °F 47% 30.10 in 10.0 mi Calm Calm - N/A   Clear
9:55 PM 53.1 °F - 38.3 °F 57% 30.11 in 10.0 mi SW 4.6 mph - N/A   Clear
10:15 PM 54.1 °F - 37.9 °F 54% 30.11 in 10.0 mi Calm Calm - N/A   Clear
10:35 PM 52.7 °F - 39.7 °F 61% 30.11 in 10.0 mi Calm Calm - N/A   Clear
10:55 PM 52.7 °F - 38.5 °F 58% 30.10 in 10.0 mi Calm Calm - N/A   Clear
11:15 PM 50.4 °F - 39.7 °F 67% 30.10 in 10.0 mi Calm Calm - N/A   Clear
11:35 PM 48.6 °F - 39.9 °F 72% 30.10 in 10.0 mi Calm Calm - N/A   Clear
11:55 PM 48.0 °F - 40.3 °F 75% 30.09 in 10.0 mi Calm Calm - N/A   Clear